Flag for Lithuania Weather past 2 weeks in Kaunas, Lithuania

39 °F

Low clouds.

Feels Like: 30 °F
Forecast: 34 / 40 °F
Wind: 16 mph from South

Location: Kaunas

Current Time: Nov 30, 2015 at 5:43:07 AM

Latest Report: Nov 30, 2015 at 4:50 AM

Visibility: N/A

Pressure: 29.42 "Hg

Humidity: 87%

Dew point: 36 °F

Location of KaunasLocation

Historic Weather in Kaunas — Graph


Kaunas temperature yesterday

Maximum temperature yesterday: 37 °F (at 9:50 PM)
Minimum temperature yesterday: 32 °F (at 12:20 AM)
Average temperature yesterday: 34 °F

Past Weeks' High & Low Weather Summary

High54 °F (Nov 18, 1:50 PM)100% (Nov 16, 4:20 AM)30.15 "Hg (Nov 16, 4:20 AM)
Low25 °F (Nov 28, 7:20 AM)65% (Nov 25, 3:20 PM)29.27 "Hg (Nov 20, 11:20 AM)
Average37 °F89%29.73 "Hg
* Reported Nov 15 4:20 AM — Nov 30 4:20 AM, Kaunas, Weather by CustomWeather, © 2015

Note: Actual official high and low records may vary slightly from our data, if they occured in-between our weather recording intervals... More about our weather records


Kaunas weather history for previous 24 hours

Time TempWeatherWind HumidityBarometerVisibility
4:20 AM
Mon, Nov 30
37 °FLow clouds.13 mph93%29.45 "HgN/A
2:20 AM37 °FOvercast.14 mph93%29.50 "HgN/A
1:50 AM37 °FOvercast.10 mph93%29.53 "HgN/A
12:50 AM37 °FLow clouds.9 mph87%29.56 "HgN/A
12:20 AM37 °FLow clouds.12 mph87%29.56 "HgN/A
11:50 PM
Sun, Nov 29
37 °FOvercast.10 mph87%29.59 "HgN/A
11:20 PM37 °FOvercast.9 mph87%29.59 "HgN/A
10:50 PM37 °FOvercast.8 mph87%29.62 "HgN/A
10:20 PM37 °FOvercast.9 mph87%29.62 "HgN/A
9:50 PM37 °FOvercast.10 mph87%29.62 "HgN/A
9:20 PM36 °FOvercast.9 mph87%29.62 "HgN/A
8:50 PM36 °FOvercast.10 mph87%29.62 "HgN/A
8:20 PM36 °FMostly cloudy.9 mph87%29.65 "Hg6 mi
7:50 PM36 °FOvercast.8 mph87%29.65 "Hg6 mi
7:20 PM36 °FOvercast.8 mph87%29.65 "Hg6 mi
6:50 PM36 °FOvercast.7 mph87%29.65 "Hg6 mi
6:20 PM36 °FOvercast.8 mph87%29.68 "HgN/A
5:50 PM36 °FMostly cloudy.8 mph87%29.68 "HgN/A
5:20 PM36 °FOvercast.8 mph87%29.68 "HgN/A
4:50 PM34 °FOvercast.8 mph93%29.68 "HgN/A
4:20 PM34 °FMostly cloudy.7 mph93%29.68 "HgN/A
3:50 PM36 °FOvercast.9 mph81%29.68 "HgN/A
3:20 PM36 °FOvercast.9 mph87%29.68 "HgN/A
2:50 PM36 °FLow clouds.9 mph87%29.68 "HgN/A
2:20 PM36 °FLow clouds.9 mph87%29.71 "HgN/A
1:50 PM34 °FLow clouds.9 mph100%29.71 "Hg4 mi
1:20 PM34 °FFog.8 mph100%29.71 "Hg3 mi
12:50 PM34 °FFog.7 mph100%29.71 "Hg2 mi
12:20 PM34 °FFog.8 mph100%29.71 "Hg1 mi
11:20 AM34 °FFog.7 mph93%29.74 "Hg1 mi
11:04 AM34 °FFog.7 mph93%29.74 "Hg1 mi
10:50 AM32 °FFog.7 mph100%29.74 "Hg1 mi
10:20 AM32 °FIce fog.6 mph100%29.74 "Hg1 mi
9:50 AM32 °FIce fog.6 mph100%29.74 "Hg1 mi
9:20 AM32 °FIce fog.7 mph93%29.74 "Hg1 mi
8:50 AM32 °FIce fog.7 mph93%29.74 "Hg1 mi
8:20 AM32 °FDrizzle. Ice fog.6 mph93%29.74 "Hg2 mi
7:20 AM32 °FLight rain. Ice fog.5 mph93%29.74 "Hg2 mi
6:50 AM32 °FLight rain. Ice fog.3 mph93%29.74 "Hg2 mi
6:20 AM32 °FLight rain. Ice fog.5 mph93%29.74 "Hg2 mi
5:50 AM32 °FLight rain. Ice fog.5 mph93%29.74 "Hg2 mi
5:20 AM32 °FLight rain. Ice fog.5 mph93%29.74 "Hg2 mi
Weather by CustomWeather, © 2015

See weather overviewHow to use our weather pages